Monticello, KY

9:23 PM EDT on April 30, 2017 (GMT -0400)
Wayne County

Weather History for KEKQ - February, 2014

Change the Weather History Date:

Wednesday, February 5, 2014

  Actual Average Record
Temperature  
Mean Temperature 34 °F -  
Max Temperature 43 °F 48 °F 70 °F (1986)
Min Temperature 25 °F 26 °F 1 °F (2009)
Degree Days  
Heating Degree Days 30    
Moisture  
Dew Point 31 °F    
Average Humidity 91    
Maximum Humidity 100    
Minimum Humidity 74    
Precipitation  
Precipitation 0.20 in - - ()
Sea Level Pressure  
Sea Level Pressure 30.03 in    
Wind  
Wind Speed 9 mph (West)    
Max Wind Speed 21 mph    
Max Gust Speed 29 mph    
Visibility 6 miles    
Events Snow    
Averages and records for this station are not official NWS values.
T = Trace of Precipitation, MM = Missing Value Source: NWS Daily Summary

Daily Weather History Graph

Daily Weather History Graph

Search for Another Location

Airport or City:

Trip Planner

Search our weather history database for the weather conditions in past years. The results will help you decide how hot, cold, wet, or windy it might be!

Date:

Astronomy

Feb. 05, 2014 Rise Set
Actual Time 6:38 AM CST 5:09 PM CST
Civil Twilight 6:11 AM CST 5:36 PM CST
Nautical Twilight 5:40 AM CST 6:07 PM CST
Astronomical Twilight 5:10 AM CST 6:37 PM CST
Moon 10:03 AM CST (2/5) 11:52 PM CST (2/5)
Length of Visible Light 11h 25m
Length of Day
10h 31m
Waxing Crescent, 39% of the Moon is Illuminated
Feb 5
Waxing Crescent
Feb 6
First Quarter
Feb 14
Full
Feb 22
Last Quarter
Mar 1
New

Hourly Weather History & Observations

Time (CST) Temp. Windchill Dew Point Humidity Pressure Visibility Wind Dir Wind Speed Gust Speed Precip Events Conditions
12:04 AM 33.8 °F 27.7 °F 33.8 °F 100% 29.80 in 4.0 mi North 6.9 mph - 0.01 in Snow Light Snow
12:18 AM 33.8 °F 28.6 °F 33.8 °F 100% 29.81 in 2.5 mi NW 5.8 mph - 0.02 in Snow Light Snow
12:26 AM 33.8 °F 26.4 °F 33.8 °F 100% 29.82 in 6.0 mi NW 9.2 mph - 0.02 in Snow Light Snow
12:40 AM 33.8 °F 25.8 °F 33.8 °F 100% 29.84 in 2.5 mi NW 10.4 mph - 0.04 in Snow Light Snow
12:56 AM 34.0 °F 28.0 °F 32.9 °F 96% 29.87 in 1.2 mi East 6.9 mph - 0.08 in Snow Light Snow
1:02 AM 33.8 °F 27.7 °F 33.8 °F 100% 29.83 in 1.5 mi East 6.9 mph - 0.02 in Snow Light Snow
1:09 AM 33.8 °F 27.7 °F 33.8 °F 100% 29.81 in 1.5 mi ESE 6.9 mph - 0.04 in Snow Light Snow
1:22 AM 33.8 °F 28.6 °F 33.8 °F 100% 29.78 in 3.0 mi SE 5.8 mph - 0.06 in Snow Light Snow
1:37 AM 35.6 °F - 33.8 °F 93% 29.77 in 2.0 mi Calm Calm - 0.09 in Snow Light Snow
1:45 AM 35.6 °F - 35.6 °F 100% 29.76 in 2.5 mi Calm Calm - 0.10 in Snow Light Snow
1:56 AM 36.0 °F 29.0 °F 36.0 °F 100% 29.79 in 10.0 mi South 9.2 mph - 0.10 in   Mostly Cloudy
2:32 AM 37.4 °F 32.8 °F 37.4 °F 100% 29.77 in 2.5 mi South 5.8 mph - 0.00 in   Overcast
2:40 AM 37.4 °F 33.8 °F 37.4 °F 100% 29.77 in 2.5 mi SSW 4.6 mph - 0.00 in   Overcast
2:44 AM 37.4 °F 33.8 °F 37.4 °F 100% 29.77 in 1.8 mi WSW 4.6 mph - 0.00 in   Overcast
2:56 AM 36.9 °F 33.1 °F 36.9 °F 100% 29.82 in 1.5 mi WSW 4.6 mph - 0.00 in   Overcast
3:05 AM 37.4 °F 34.9 °F 37.4 °F 100% 29.78 in 3.0 mi Variable 3.5 mph - N/A   Overcast
3:14 AM 37.4 °F - 37.4 °F 100% 29.79 in 1.8 mi Calm Calm - 0.00 in Snow Light Snow
3:24 AM 41.0 °F 35.2 °F 39.2 °F 93% 29.80 in 1.2 mi SW 9.2 mph - 0.01 in   Overcast
3:28 AM 42.8 °F 37.0 °F 42.8 °F 100% 29.80 in 1.0 mi SW 10.4 mph - 0.01 in   Overcast
3:46 AM 42.8 °F 35.8 °F 42.8 °F 100% 29.81 in 1.0 mi WSW 13.8 mph 20.7 mph 0.01 in   Overcast
3:56 AM 43.0 °F 35.4 °F 41.9 °F 96% 29.84 in 1.5 mi WSW 16.1 mph 21.9 mph 0.02 in   Overcast
4:01 AM 42.8 °F 35.4 °F 42.8 °F 100% 29.81 in 3.0 mi WSW 15.0 mph - N/A   Overcast
4:44 AM 41.0 °F 34.7 °F 41.0 °F 100% 29.83 in 6.0 mi WSW 10.4 mph - N/A   Overcast
4:56 AM 41.0 °F 34.3 °F 39.9 °F 96% 29.87 in 10.0 mi WSW 11.5 mph - N/A   Overcast
5:20 AM 41.0 °F 33.5 °F 39.2 °F 93% 29.85 in 10.0 mi WSW 13.8 mph 20.7 mph N/A   Overcast
5:27 AM 41.0 °F 32.5 °F 39.2 °F 93% 29.86 in 10.0 mi West 17.3 mph 21.9 mph N/A   Overcast
5:56 AM 39.9 °F 31.4 °F 38.8 °F 96% 29.93 in 10.0 mi West 16.1 mph 21.9 mph N/A   Overcast
6:56 AM 36.9 °F 26.8 °F 34.9 °F 93% 29.99 in 10.0 mi West 18.4 mph 24.2 mph N/A   Overcast
7:47 AM 35.6 °F 25.5 °F 32.0 °F 87% 29.99 in 10.0 mi WSW 17.3 mph 28.8 mph N/A   Overcast
7:56 AM 34.9 °F 24.9 °F 32.0 °F 89% 30.04 in 10.0 mi West 16.1 mph 25.3 mph N/A   Overcast
8:28 AM 33.8 °F 22.5 °F 30.2 °F 87% 30.02 in 10.0 mi West 19.6 mph 24.2 mph N/A   Overcast
8:56 AM 32.9 °F 23.2 °F 31.1 °F 93% 30.08 in 10.0 mi West 13.8 mph - N/A   Overcast
9:56 AM 32.9 °F 23.2 °F 31.1 °F 93% 30.10 in 8.0 mi WSW 13.8 mph - N/A   Overcast
10:56 AM 32.9 °F 21.0 °F 31.1 °F 93% 30.12 in 10.0 mi West 20.7 mph 26.5 mph N/A   Overcast
11:25 AM 32.0 °F 20.8 °F 30.2 °F 93% 30.09 in 10.0 mi West 17.3 mph - N/A   Overcast
11:56 AM 32.0 °F 22.1 °F 29.1 °F 89% 30.14 in 9.0 mi West 13.8 mph 23.0 mph N/A   Overcast
12:56 PM 31.1 °F 19.3 °F 28.0 °F 88% 30.15 in 8.0 mi West 18.4 mph 23.0 mph 0.00 in   Overcast
1:56 PM 29.1 °F 18.4 °F 25.2 °F 85% 30.19 in 5.0 mi West 13.8 mph - 0.00 in   Overcast
2:23 PM 28.4 °F 17.0 °F 24.8 °F 86% 30.17 in 5.0 mi West 15.0 mph - 0.00 in   Overcast
2:56 PM 28.0 °F 16.1 °F 22.1 °F 78% 30.23 in 10.0 mi West 16.1 mph - 0.00 in   Overcast
3:56 PM 27.1 °F 14.9 °F 22.1 °F 81% 30.27 in 2.5 mi NW 16.1 mph - 0.00 in Snow Light Snow
4:20 PM 26.6 °F 15.2 °F 21.2 °F 80% 30.25 in 6.0 mi WNW 13.8 mph - 0.00 in Snow Light Snow
4:56 PM 26.1 °F 14.5 °F 21.0 °F 81% 30.31 in 7.0 mi WNW 13.8 mph - 0.00 in Snow Light Snow
5:43 PM 26.6 °F 19.1 °F 21.2 °F 80% 30.30 in 4.0 mi NW 6.9 mph - 0.00 in Snow Light Snow
5:56 PM 26.1 °F 16.2 °F 22.1 °F 85% 30.35 in 8.0 mi NW 10.4 mph - 0.00 in Snow Light Snow
6:26 PM 26.6 °F 18.2 °F 21.2 °F 80% 30.32 in 10.0 mi NW 8.1 mph - 0.00 in Snow Light Snow
6:45 PM 26.6 °F 19.1 °F 21.2 °F 80% 30.32 in 9.0 mi WNW 6.9 mph - 0.00 in Snow Light Snow
6:56 PM 26.1 °F 17.6 °F 22.1 °F 85% 30.37 in 8.0 mi WNW 8.1 mph - 0.00 in Snow Light Snow
7:45 PM 26.6 °F 18.2 °F 21.2 °F 80% 30.34 in 10.0 mi NW 8.1 mph - 0.00 in Snow Light Snow
7:56 PM 26.1 °F 18.4 °F 21.0 °F 81% 30.38 in 10.0 mi NNW 6.9 mph - 0.00 in Snow Light Snow
8:17 PM 26.6 °F 19.1 °F 21.2 °F 80% 30.34 in 10.0 mi NW 6.9 mph - 0.00 in Snow Light Snow
8:56 PM 26.1 °F 19.4 °F 22.1 °F 85% 30.41 in 9.0 mi NNW 5.8 mph - 0.00 in Snow Light Snow
9:56 PM 26.1 °F 16.2 °F 19.0 °F 75% 30.42 in 10.0 mi North 10.4 mph - 0.00 in   Overcast
10:56 PM 26.1 °F 19.4 °F 20.1 °F 78% 30.43 in 10.0 mi NNW 5.8 mph - 0.00 in   Overcast
11:08 PM 26.6 °F 18.2 °F 19.4 °F 74% 30.37 in 10.0 mi NW 8.1 mph - 0.00 in   Overcast
11:56 PM 25.2 °F 15.7 °F 21.0 °F 84% 30.43 in 10.0 mi NNW 9.2 mph - 0.00 in   Overcast